#timestamp,LO_Frequency,Hit,StdDev 
1549724415.9,286047002.1,N
1549724435.7,286047000.5,N
1549724455.5,286047001.0,N
1549724475.4,286046998.6,N
1549724495.2,286046996.5,N
1549724515.1,286046997.7,N
1549724516.0,286046997.7,N
1549724535.8,286046997.1,N
1549724555.6,286046995.4,N
1549724575.5,286046995.4,N
1549724595.3,286046995.6,N
1549724615.1,286046999.5,N
1549724635.9,286046999.3,N
1549724655.7,286046998.6,N
1549724675.6,286046998.8,N
1549724695.4,286046999.3,N
1549724715.2,286047001.1,N
1549724735.1,286046998.2,N
1549724736.0,286046998.2,N
1549724755.8,286047001.2,N
1549724775.7,286047000.0,N
1549724795.5,286047001.1,N
1549724815.3,286047001.1,N
1549724835.2,286047001.0,N
1549724855.9,286047000.5,N
1549724875.7,286047000.7,N
1549724895.6,286047001.0,N
1549724915.4,286046998.9,N
1549724935.3,286046998.9,N
1549724955.1,286046998.9,N
1549724956.0,286046998.9,N
1549724975.8,286046999.0,N
1549724995.7,286046998.5,N
1549725015.5,286046999.1,N
1549725035.3,286046998.0,N
1549725055.2,286046997.8,N
1549725075.0,286046995.1,Y
1549725075.9,286046995.1,P
1549725095.8,286046999.5,N
1549725115.6,286046999.0,N
1549725135.4,286046999.2,N
1549725155.3,286046999.5,N
1549725175.1,286046998.7,N
1549725195.9,286046996.8,N
1549725215.7,286046996.8,N
1549725235.5,286046997.7,N
1549725255.4,286046995.3,Y
1549725275.2,286046997.0,P
1549725295.0,286046998.4,N
1549725295.9,286046998.4,N
1549725315.8,286046999.5,N
1549725335.6,286047001.2,N
1549725355.5,286046999.9,N
1549725375.3,286047001.0,N
1549725395.1,286046998.1,N
1549725415.9,286046998.3,N
1549725435.7,286047001.1,N
1549725455.5,286047001.1,N
1549725475.4,286047000.6,N
1549725495.2,286047001.0,N
1549725515.1,286046999.9,N
1549725516.0,286046999.9,N
1549725535.8,286047000.0,N
1549725555.6,286047000.7,N
1549725575.5,286046998.8,N
1549725595.3,286046999.0,N
1549725615.1,286046997.2,N
1549725635.9,286046998.6,N
1549725655.7,286046999.4,N
1549725675.6,286046996.9,N
1549725695.4,286046997.1,N
1549725715.2,286046997.4,N
1549725735.1,286046997.5,N
1549725736.0,286046997.5,N
1549725755.8,286046997.6,N
1549725775.7,286046996.6,N
1549725795.5,286046999.6,N
1549725815.3,286046996.6,N
1549725835.2,286046998.3,N
1549725855.9,286047001.2,N
1549725875.7,286047000.7,N
1549725895.6,286047000.4,N
1549725915.4,286046999.8,N
1549725935.3,286047002.6,N
1549725955.1,286047002.4,N
1549725956.0,286047002.4,N
1549725975.8,286047002.0,N
1549725995.7,286047003.6,N
1549726015.5,286047003.1,N
1549726035.3,286047005.3,N
1549726055.2,286047006.0,N
1549726075.0,286047005.7,N
1549726075.9,286047005.7,N
1549726095.8,286047003.1,N
1549726115.6,286047004.9,N
1549726135.5,286047005.5,N
1549726155.3,286047003.7,N
1549726175.2,286047003.6,N
1549726195.9,286047003.4,N
1549726215.7,286047003.0,N
1549726235.6,286047003.8,N
1549726255.4,286047005.2,N
1549726275.3,286047004.9,N
1549726295.1,286047007.3,N
1549726315.8,286047007.0,N
1549726335.7,286047006.6,N
1549726355.5,286047006.6,N
1549726375.4,286047009.2,Y
1549726395.2,286047003.0,P
1549726415.0,286047005.8,P
1549726415.9,286047005.8,P
1549726435.8,286047003.0,N
1549726455.6,286047006.0,Y
1549726475.4,286046999.9,P
1549726495.3,286047000.4,N
1549726515.1,286047000.4,N
1549726535.9,286047000.2,N
1549726555.7,286046998.3,N
1549726575.5,286047001.1,N
1549726595.4,286047000.8,N
1549726615.2,286047000.8,N
1549726635.0,286047000.4,N
1549726635.9,286047000.4,N
1549726655.8,286047000.5,N
1549726675.6,286047000.6,N
1549726695.5,286047002.7,N
1549726715.3,286047002.7,N
1549726735.1,286047000.6,N
1549726755.9,286047000.6,N
1549726775.7,286046999.8,N
1549726795.6,286047002.4,N
1549726815.4,286047002.5,N
1549726835.2,286046999.7,N
1549726855.1,286047004.4,Y
1549726856.0,286047004.4,P
1549726875.8,286047001.9,N
1549726895.6,286046999.8,N
1549726915.5,286047002.8,N
1549726935.3,286047002.8,N
1549726955.2,286047000.2,N
1549726975.9,286047002.4,N
1549726995.7,286047002.7,N
1549727015.6,286047001.4,N
1549727035.4,286047003.9,N
1549727055.2,286047003.1,N
1549727075.1,286047004.4,Y
1549727076.0,286047004.4,P
1549727095.8,286047001.0,N
1549727115.7,286046998.3,N
1549727135.5,286046998.5,N
1549727155.3,286046998.2,N
1549727175.2,286046998.1,N
1549727195.0,286047000.6,N
1549727195.9,286047000.6,N
1549727215.8,286047000.1,N
1549727235.6,286047002.3,N
1549727255.4,286047000.0,N
1549727275.3,286047002.4,N
1549727295.1,286047000.5,N
1549727315.8,286047002.0,N
1549727335.7,286047001.3,N
1549727355.5,286047002.1,N
1549727375.4,286047002.7,N
1549727395.2,286046999.8,N
1549727415.0,286047000.7,N
1549727415.9,286047000.7,N
1549727435.8,286047000.8,N
1549727455.6,286046998.6,N
1549727475.4,286047000.7,N
1549727495.3,286046999.8,N
1549727515.1,286047000.1,N
1549727535.9,286047000.6,N
1549727555.7,286047001.0,N
1549727575.5,286046999.8,N
1549727595.4,286047000.2,N
1549727615.2,286047002.7,N
1549727635.0,286047001.9,N
1549727635.9,286047001.9,N
1549727655.8,286047000.5,N
1549727675.6,286047002.2,N
1549727695.5,286047001.7,N
1549727715.3,286047004.4,Y
1549727735.1,286047002.4,P
1549727755.9,286047002.6,P
1549727775.7,286047002.6,P
1549727795.6,286047002.6,Y
1549727815.4,286046998.9,P
1549727835.2,286046998.8,N
1549727855.1,286046999.2,N
1549727856.0,286046999.2,N
1549727875.8,286046999.5,N
1549727895.6,286046997.0,N
1549727915.5,286046999.6,N
1549727935.3,286046996.9,N
1549727955.2,286046997.6,N
1549727975.9,286046995.7,Y
1549727995.7,286046997.5,P
